Total_Precipitation_Accumulation
0.07 0.16 0.23 0.25 0.23 0.20 0.16 0.15 0.27 0.32 0.42 0.52 0.69 0.68 0.69 0.66 0.60 0.58 0.69 0.66 0.61 0.61 0.68 0.70 0.75 0.77 0.77 0.80 0.83 1.03 1.52 1.75 1.71 1.64 1.67 1.64 1.61 1.71 1.77 1.83 1.87 2.10 2.25 2.33
0.11 0.14 0.16 0.17 0.20 0.19 0.14 0.12 0.12 0.18 0.35 0.40 0.64 0.78 0.77 0.78 0.75 0.69 0.69 0.65 0.62 0.55 0.65 0.76 0.83 0.86 0.87 0.93 0.99 1.12 1.45 1.72 1.68 1.60 1.58 1.50 1.56 1.67 1.78 1.87 2.05 2.23 2.22 2.20
0.16 0.19 0.18 0.25 0.21 0.17 0.16 0.15 0.16 0.25 0.39 0.41 0.49 0.65 0.77 0.80 0.76 0.68 0.70 0.63 0.63 0.67 0.75 0.95 0.89 0.92 1.00 0.93 0.99 1.17 1.49 1.72 1.76 1.67 1.63 1.59 1.54 1.70 1.88 2.08 2.26 2.37 2.32 2.25
0.22 0.26 0.37 0.29 0.21 0.22 0.25 0.29 0.30 0.33 0.38 0.41 0.54 0.63 0.76 0.93 0.79 0.65 0.68 0.71 0.79 0.77 0.82 0.91 0.91 0.96 1.03 1.04 1.07 1.22 1.45 1.69 1.79 1.77 1.81 1.88 1.90 1.95 2.13 2.36 2.51 2.52 2.48 2.37
0.31 0.35 0.42 0.38 0.31 0.35 0.39 0.45 0.47 0.50 0.44 0.49 0.56 0.69 0.85 0.79 0.77 0.82 0.83 0.82 0.88 0.97 1.01 1.09 1.09 1.04 1.10 1.25 1.28 1.35 1.42 1.65 1.80 1.87 1.97 2.00 2.07 2.31 2.49 2.65 2.67 2.62 2.67 2.56
0.45 0.53 0.61 0.60 0.44 0.38 0.47 0.79 0.62 0.64 0.63 0.57 0.60 0.87 1.02 0.85 0.77 0.77 0.88 0.98 0.98 1.05 1.11 1.14 1.18 1.24 1.29 1.42 1.58 1.70 1.77 1.86 2.09 2.30 2.48 2.56 2.63 2.71 2.77 2.87 2.80 2.79 2.70 2.68
0.66 0.79 0.73 0.58 0.51 0.46 0.87 1.20 0.89 0.85 0.83 0.74 0.85 0.97 0.97 0.84 0.79 0.75 0.79 0.94 1.02 1.06 1.16 1.24 1.25 1.40 1.66 1.79 1.88 2.03 2.20 2.25 2.45 2.79 2.98 2.97 3.04 2.95 2.87 2.85 2.87 2.86 2.74 2.63
0.90 1.14 1.21 0.67 0.62 0.97 1.22 1.02 1.04 1.06 1.03 0.96 0.94 1.00 1.02 0.99 0.84 0.79 0.80 0.88 0.99 1.08 1.16 1.35 1.60 1.80 2.08 2.24 2.26 2.34 2.49 2.67 2.92 3.18 3.05 2.97 3.14 3.03 3.02 3.08 3.06 2.95 2.85 2.73
1.17 1.39 1.18 0.83 0.95 1.12 1.11 1.08 1.12 1.10 1.05 0.95 0.91 1.07 1.02 0.95 0.92 0.80 0.80 0.87 0.96 1.06 1.24 1.45 1.75 2.14 2.39 2.46 2.60 2.63 2.70 2.86 2.98 3.06 3.19 3.32 3.38 3.25 3.16 3.14 3.08 2.88 2.76 2.58
1.47 1.53 1.28 1.12 1.11 1.07 1.10 1.12 1.08 1.01 0.96 0.97 0.95 0.96 0.96 0.90 0.89 0.85 0.86 0.95 1.00 1.11 1.32 1.63 1.94 2.28 2.43 2.49 2.52 2.53 2.58 2.61 2.73 2.90 3.04 3.15 3.37 3.37 3.23 3.05 2.94 2.85 2.79 2.63
1.96 2.00 1.81 1.66 1.43 1.26 1.22 1.17 1.21 1.17 1.08 1.04 1.01 0.96 0.90 0.90 0.89 0.89 0.91 1.04 1.14 1.25 1.36 1.52 1.78 2.05 2.18 2.34 2.43 2.59 2.63 2.56 2.50 2.52 2.66 2.81 2.93 3.00 2.93 2.88 2.72 2.59 2.44 2.36
2.26 1.97 1.92 2.04 1.76 1.51 1.44 1.43 1.46 1.44 1.40 1.27 1.18 1.11 1.03 0.98 0.92 0.89 0.90 1.01 1.14 1.28 1.45 1.60 1.76 1.95 2.06 2.24 2.40 2.55 2.56 2.45 2.42 2.38 2.45 2.49 2.49 2.44 2.30 2.20 2.04 1.86 1.77 1.70
1.90 1.80 1.77 1.93 1.85 1.75 1.79 1.88 1.88 1.75 1.55 1.31 1.19 1.14 1.08 0.96 0.90 0.92 1.00 1.12 1.29 1.37 1.50 1.68 1.77 1.88 2.05 2.23 2.38 2.49 2.44 2.30 2.18 2.09 2.10 2.09 2.13 2.26 2.31 2.08 1.87 1.64 1.49 1.35
1.79 2.01 2.22 2.23 2.16 1.99 1.99 2.07 2.02 1.78 1.63 1.48 1.32 1.25 1.16 1.05 0.98 0.97 1.02 1.14 1.26 1.35 1.37 1.47 1.63 1.72 1.90 2.10 2.24 2.33 2.29 2.23 2.10 2.04 2.03 2.03 2.11 2.18 2.28 2.27 2.00 1.61 1.46 1.33
2.03 1.98 2.18 2.29 2.16 2.12 2.09 2.09 2.10 1.94 1.73 1.69 1.59 1.43 1.35 1.34 1.31 1.26 1.23 1.24 1.36 1.44 1.47 1.49 1.60 1.69 1.85 2.11 2.17 2.16 2.13 2.08 2.01 2.01 1.97 1.97 2.10 2.13 2.12 2.16 2.02 1.78 1.52 1.30
2.40 2.15 2.19 2.29 2.17 2.05 1.97 1.92 1.90 1.85 1.72 1.63 1.60 1.55 1.42 1.40 1.43 1.41 1.45 1.52 1.69 1.74 1.72 1.72 1.74 1.76 1.93 2.15 2.19 2.13 2.05 1.95 1.83 1.80 1.77 1.71 1.74 1.84 1.87 1.94 1.89 1.79 1.63 1.34
2.44 2.45 2.43 2.23 2.06 1.98 1.85 1.71 1.65 1.63 1.70 1.69 1.53 1.47 1.38 1.28 1.30 1.41 1.52 1.60 1.71 1.70 1.65 1.70 1.71 1.74 1.88 2.06 2.16 2.13 1.96 1.76 1.51 1.37 1.44 1.53 1.63 1.73 1.75 1.78 1.81 1.77 1.57 1.31
2.10 2.15 2.17 2.00 1.88 1.82 1.74 1.61 1.49 1.43 1.49 1.51 1.37 1.34 1.33 1.36 1.44 1.54 1.69 1.72 1.73 1.67 1.56 1.49 1.49 1.61 1.79 1.84 1.88 1.92 1.82 1.67 1.50 1.37 1.40 1.47 1.56 1.71 1.73 1.67 1.64 1.65 1.56 1.33
1.91 1.86 1.86 1.71 1.63 1.58 1.52 1.42 1.43 1.38 1.35 1.43 1.40 1.34 1.37 1.45 1.60 1.69 1.75 1.92 1.97 1.81 1.60 1.44 1.45 1.47 1.61 1.67 1.73 1.82 1.77 1.71 1.59 1.50 1.55 1.59 1.61 1.63 1.60 1.55 1.54 1.51 1.46 1.36
1.94 1.80 1.80 1.67 1.55 1.52 1.45 1.36 1.29 1.28 1.34 1.40 1.44 1.47 1.57 1.63 1.77 1.92 1.98 2.04 2.06 1.92 1.63 1.46 1.36 1.38 1.44 1.49 1.58 1.55 1.58 1.62 1.55 1.47 1.49 1.55 1.52 1.56 1.51 1.47 1.43 1.39 1.35 1.33
1.90 1.87 1.84 1.79 1.67 1.51 1.42 1.38 1.33 1.30 1.31 1.39 1.50 1.57 1.72 1.81 1.90 2.08 2.27 2.24 2.03 1.88 1.64 1.45 1.30 1.28 1.26 1.36 1.47 1.45 1.49 1.56 1.56 1.55 1.54 1.55 1.57 1.61 1.54 1.47 1.43 1.39 1.38 1.36
1.72 1.78 1.75 1.65 1.57 1.50 1.40 1.40 1.38 1.36 1.38 1.46 1.53 1.63 1.76 1.83 1.94 2.06 2.09 2.23 2.08 1.96 1.60 1.35 1.21 1.18 1.19 1.27 1.25 1.36 1.39 1.42 1.45 1.47 1.47 1.49 1.49 1.53 1.53 1.44 1.37 1.28 1.26 1.27
1.57 1.58 1.61 1.58 1.53 1.51 1.43 1.42 1.47 1.47 1.55 1.66 1.70 1.76 1.86 1.85 1.93 2.29 2.36 2.10 1.95 1.83 1.46 1.30 1.30 1.24 1.21 1.15 1.17 1.26 1.30 1.33 1.35 1.26 1.21 1.25 1.29 1.36 1.42 1.38 1.36 1.28 1.24 1.25
1.56 1.47 1.49 1.45 1.39 1.44 1.44 1.39 1.44 1.57 1.63 1.70 1.68 1.69 1.84 1.87 1.82 1.88 2.11 2.16 1.98 1.74 1.42 1.38 1.32 1.22 1.18 1.11 1.25 1.31 1.31 1.32 1.30 1.18 1.07 1.09 1.15 1.25 1.34 1.37 1.38 1.33 1.26 1.22
1.54 1.40 1.30 1.32 1.40 1.51 1.53 1.52 1.58 1.65 1.67 1.66 1.53 1.55 1.72 1.85 1.91 1.83 1.76 1.80 1.86 1.67 1.47 1.42 1.34 1.27 1.09 1.03 1.19 1.34 1.39 1.41 1.32 1.20 1.12 1.16 1.20 1.24 1.26 1.26 1.23 1.19 1.18 1.18
1.59 1.45 1.39 1.31 1.36 1.48 1.57 1.70 1.83 1.84 1.81 1.81 1.65 1.52 1.61 1.67 1.60 1.58 1.60 1.62 1.63 1.63 1.47 1.42 1.32 1.27 1.16 1.11 1.19 1.33 1.46 1.54 1.39 1.24 1.20 1.27 1.27 1.24 1.23 1.18 1.14 1.13 1.10 1.05
1.53 1.49 1.48 1.42 1.45 1.49 1.60 1.76 1.94 1.99 1.94 1.94 1.81 1.63 1.55 1.49 1.38 1.37 1.41 1.51 1.52 1.52 1.51 1.48 1.37 1.27 1.19 1.17 1.20 1.25 1.35 1.42 1.39 1.32 1.27 1.29 1.31 1.32 1.24 1.15 1.09 1.07 1.06 1.01